Location: Blackfoot
(53.5367°N, 112.7800°W)
Time: 15:15:49
(UTC-06:00)

Amateur Radio Satellites - All Passes

Search period start: 02 September 2014 14:45
Search period end: 03 September 2014 14:45
Location: Blackfoot, 53.5367°N, 112.7800°W

Satellite Date Start Highest point End Downlink Frequencies (MHz)
Time Altitude Azimuth
AO-27 02 Sep 14:49:02 14:54:12 75° 255° (WSW) 14:59:25 436.795 MHz FM
UOSAT-12 02 Sep 14:52:36 14:56:34 27° 242° (WSW) 15:00:28 437.025 FM, 437.400 FM
Oscar 19 02 Sep 15:20:47 15:24:57 24° 269° (W) 15:29:08 437.125 CW, 437.150 USB
AO-Echo 02 Sep 15:23:25 15:28:00 37° 263° (W) 15:32:29 ?
Gurwin Techsat 1B 02 Sep 15:34:11 15:39:28 68° 257° (WSW) 15:44:47 435.225 FM
ISS 02 Sep 15:46:36 15:49:33 29° 206° (SSW) 15:52:29 145.800 FM
MaSat-1 02 Sep 15:46:59 15:51:27 29° 323° (NW) 15:55:53 437.345 MHz
Oscar 16 02 Sep 15:58:51 16:00:59 12° 277° (W) 16:03:09 437.025 USB, Beacon 2401.1428
ITAMSAT 1 02 Sep 16:00:12 16:04:17 23° 269° (W) 16:08:23 435.822 SSB
JAS-1B 02 Sep 16:00:52 16:09:41 41° 266° (W) 16:17:29 435.800 - 435.900 CW/SSB
Uribyol 2 02 Sep 16:10:01 16:13:37 19° 272° (W) 16:17:15 436.500 FM
Uosat F 02 Sep 16:15:52 16:20:46 56° 67° (ENE) 16:25:40 435.120 FM
TMSAT-1 02 Sep 16:24:21 16:29:14 37° 264° (W) 16:34:10 436.925 FM
RS-15 02 Sep 16:28:57 16:40:00 85° 229° (SW) 16:51:25 29.354 - 29.394 USB, Beacon 29.352 USB
AO-7 02 Sep 16:30:06 16:38:28 88° 68° (ENE) 16:46:51 29.400 - 29.500 MHz
AO-27 02 Sep 16:32:07 16:34:39 14° 276° (W) 16:37:12 436.795 MHz FM
JAS-2 02 Sep 16:33:27 16:36:55 17° 51° (NE) 16:40:15 435.800 - 435.900 CW/SSB, 435.910 FM
Sapphire 02 Sep 16:33:31 16:37:30 21° 109° (ESE) 16:41:31 437.095 MHz 1200 baud AX-25 AFSK
Hamsat 02 Sep 16:58:05 17:00:59 18° 57° (ENE) 17:03:54 145.90 MHz
PCSat 02 Sep 17:01:29 17:06:21 35° 115° (ESE) 17:11:15 145.825 MHz
Gurwin Techsat 1B 02 Sep 17:18:18 17:20:29 12° 277° (W) 17:22:41 435.225 FM
MaSat-1 02 Sep 17:27:18 17:30:03 14° 346° (NNW) 17:32:44 437.345 MHz
OPAL 02 Sep 17:42:22 17:47:10 35° 98° (E) 17:51:54 ?
Uosat F 02 Sep 17:55:41 17:59:53 27° 267° (W) 18:04:07 435.120 FM
Sapphire 02 Sep 18:14:53 18:20:19 87° 309° (NW) 18:25:47 437.095 MHz 1200 baud AX-25 AFSK
JAS-2 02 Sep 18:15:36 18:21:22 76° 71° (ENE) 18:26:40 435.800 - 435.900 CW/SSB, 435.910 FM
AO-7 02 Sep 18:25:31 18:32:19 27° 270° (W) 18:39:10 29.400 - 29.500 MHz
Hamsat 02 Sep 18:32:05 18:36:26 80° 256° (WSW) 18:40:51 145.90 MHz
HO-68 02 Sep 18:40:48 18:44:54 17° 35° (NE) 18:49:00 435.675 MHz FM
RS-15 02 Sep 18:41:53 18:50:59 32° 254° (WSW) 19:00:23 29.354 - 29.394 USB, Beacon 29.352 USB
PCSat 02 Sep 18:44:14 18:49:35 58° 317° (NW) 18:54:59 145.825 MHz
SO-67 02 Sep 18:48:33 18:51:27 25° 65° (ENE) 18:54:23 435.3500 MHz FM
MaSat-1 02 Sep 19:06:35 19:09:05 14° 11° (N) 19:11:30 437.345 MHz
OPAL 02 Sep 19:21:11 19:26:12 47° 298° (WNW) 19:31:10 ?
STRAND 1 02 Sep 19:31:34 19:35:44 24° 92° (E) 19:39:52 ?
Sapphire 02 Sep 19:59:43 20:04:27 30° 333° (NNW) 20:09:13 437.095 MHz 1200 baud AX-25 AFSK
JAS-2 02 Sep 20:02:51 20:07:04 21° 270° (W) 20:11:04 435.800 - 435.900 CW/SSB, 435.910 FM
Hamsat 02 Sep 20:11:32 20:13:10 12° 276° (W) 20:14:48 145.90 MHz
SO-67 02 Sep 20:21:18 20:24:26 31° 264° (W) 20:27:35 435.3500 MHz FM
HO-68 02 Sep 20:24:18 20:31:03 48° 59° (ENE) 20:37:49 435.675 MHz FM
PCSat 02 Sep 20:29:43 20:34:06 24° 341° (NNW) 20:38:30 145.825 MHz
UKube-1 02 Sep 20:34:44 20:37:57 21° 57° (ENE) 20:41:11 145.840 MHz, 145.915 MHz
Oscar 11 02 Sep 20:38:09 20:40:43 16° 54° (NE) 20:43:17 145.825 FM, Beacon 2401.500 USB
MaSat-1 02 Sep 20:43:35 20:47:44 27° 35° (NE) 20:51:32 437.345 MHz
OPAL 02 Sep 21:01:50 21:03:57 13° 319° (NW) 21:06:05 ?
STRAND 1 02 Sep 21:10:17 21:15:20 62° 291° (WNW) 21:20:23 ?
FUNcube-1 02 Sep 21:13:12 21:15:31 14° 53° (NE) 21:17:51 145.950 - 145.970 MHz USB
Sapphire 02 Sep 21:45:40 21:49:35 20° 358° (N) 21:53:30 437.095 MHz 1200 baud AX-25 AFSK
UKube-1 02 Sep 22:09:28 22:13:47 66° 257° (WSW) 22:18:08 145.840 MHz, 145.915 MHz
HO-68 02 Sep 22:11:54 22:18:47 50° 260° (W) 22:25:44 435.675 MHz FM
Oscar 11 02 Sep 22:11:55 22:16:17 87° 74° (ENE) 22:20:42 145.825 FM, Beacon 2401.500 USB
PCSat 02 Sep 22:15:22 22:19:22 20° 7° (N) 22:23:21 145.825 MHz
MaSat-1 02 Sep 22:20:31 22:25:18 76° 239° (WSW) 22:29:27 437.345 MHz
Saudisat 1A 02 Sep 22:35:41 22:39:24 27° 120° (ESE) 22:43:09 436.775 MHz
FUNcube-1 02 Sep 22:46:59 22:51:14 81° 74° (ENE) 22:55:37 145.950 - 145.970 MHz USB
STRAND 1 02 Sep 22:50:57 22:53:38 15° 312° (NW) 22:56:18 ?
Sapphire 02 Sep 23:30:09 23:34:46 27° 24° (NNE) 23:39:23 437.095 MHz 1200 baud AX-25 AFSK
KITSAT 1 02 Sep 23:37:40 23:45:09 44° 115° (ESE) 23:52:40 435.175 FM
Oscar 11 02 Sep 23:50:48 23:53:07 14° 274° (W) 23:55:28 145.825 FM, Beacon 2401.500 USB
PCSat 02 Sep 23:59:21 00:04:20 35° 32° (NNE) 00:09:18 145.825 MHz
MaSat-1 02 Sep 23:59:26 00:01:17 12° 261° (W) 00:03:03 437.345 MHz
HO-68 03 Sep 00:06:49 00:08:22 11° 283° (WNW) 00:09:56 435.675 MHz FM
Saudisat 1A 03 Sep 00:14:21 00:18:44 62° 320° (NW) 00:23:09 436.775 MHz
Oscar 10/S400 03 Sep 00:20:05 00:56:37 43° 190° (S) 07:19:35 145.825 - 145.975 CW/USB, Beacon 145.810 USB
FUNcube-1 03 Sep 00:25:54 00:28:16 15° 274° (W) 00:30:41 145.950 - 145.970 MHz USB
Sapphire 03 Sep 01:13:36 01:19:04 75° 48° (NE) 01:24:30 437.095 MHz 1200 baud AX-25 AFSK
KITSAT 1 03 Sep 01:32:13 01:40:18 69° 319° (NW) 01:48:24 435.175 FM
PCSat 03 Sep 01:42:47 01:48:13 72° 235° (SW) 01:53:37 145.825 MHz
Oscar 19 03 Sep 01:46:30 01:49:19 15° 85° (E) 01:52:07 437.125 CW, 437.150 USB
Saudisat 1A 03 Sep 01:55:28 01:59:06 24° 343° (NNW) 02:02:44 436.775 MHz
AO-40 03 Sep 02:10:06 03:10:25 12° 221° (SW) 04:28:22 Beacon 2401.320
Oscar 16 03 Sep 02:20:58 02:25:24 27° 92° (E) 02:29:48 437.025 USB, Beacon 2401.1428
ITAMSAT 1 03 Sep 02:26:51 02:29:43 15° 85° (E) 02:32:35 435.822 SSB
Uribyol 2 03 Sep 02:35:25 02:38:58 18° 88° (E) 02:42:30 436.500 FM
AO-27 03 Sep 02:55:57 03:00:13 25° 92° (E) 03:04:27 436.795 MHz FM
Sapphire 03 Sep 02:57:37 03:02:02 26° 249° (WSW) 03:06:26 437.095 MHz 1200 baud AX-25 AFSK
AO-Echo 03 Sep 03:23:34 03:28:03 42° 98° (E) 03:32:31 ?
Oscar 19 03 Sep 03:24:18 03:29:33 79° 105° (ESE) 03:34:45 437.125 CW, 437.150 USB
OPAL 03 Sep 03:26:05 03:30:15 26° 53° (NE) 03:34:29 ?
PCSat 03 Sep 03:27:41 03:30:44 15° 255° (WSW) 03:33:47 145.825 MHz
KITSAT 1 03 Sep 03:29:43 03:37:07 37° 346° (NNW) 03:44:32 435.175 FM
SO-50 03 Sep 03:30:19 03:33:58 25° 117° (ESE) 03:37:42 436.795 FM
Saudisat 1A 03 Sep 03:36:41 03:40:02 20° 7° (N) 03:43:22 436.775 MHz
JAS-1B 03 Sep 03:39:41 03:46:25 51° 97° (E) 03:52:13 435.800 - 435.900 CW/SSB
Gurwin Techsat 1B 03 Sep 03:44:02 03:48:44 31° 94° (E) 03:53:25 435.225 FM
Oscar 16 03 Sep 03:59:59 04:05:07 57° 292° (WNW) 04:10:11 437.025 USB, Beacon 2401.1428
ITAMSAT 1 03 Sep 04:04:52 04:10:05 80° 105° (ESE) 04:15:17 435.822 SSB
Uribyol 2 03 Sep 04:13:54 04:19:08 85° 288° (WNW) 04:24:21 436.500 FM
Uosat F 03 Sep 04:20:21 04:20:44 10° 82° (E) 04:21:08 435.120 FM
AO-7 03 Sep 04:25:25 04:31:11 20° 85° (E) 04:36:53 29.400 - 29.500 MHz
TMSAT-1 03 Sep 04:32:58 04:38:12 56° 101° (E) 04:43:23 436.925 FM
AO-27 03 Sep 04:35:01 04:40:09 62° 292° (WNW) 04:45:16 436.795 MHz FM
AO-Echo 03 Sep 05:02:36 05:06:46 32° 298° (WNW) 05:10:57 ?
OPAL 03 Sep 05:03:38 05:08:44 70° 254° (WSW) 05:13:57 ?
Oscar 19 03 Sep 05:04:25 05:08:24 23° 305° (NW) 05:12:22 437.125 CW, 437.150 USB
SO-50 03 Sep 05:09:37 05:14:09 70° 319° (NW) 05:18:49 436.795 FM
UOSAT-12 03 Sep 05:09:51 05:13:23 22° 116° (ESE) 05:16:59 437.025 FM, 437.400 FM
Saudisat 1A 03 Sep 05:16:34 05:20:43 37° 31° (NNE) 05:24:51 436.775 MHz
STRAND 1 03 Sep 05:17:31 05:20:20 15° 48° (NE) 05:23:08 ?
Gurwin Techsat 1B 03 Sep 05:23:49 05:28:58 52° 294° (WNW) 05:34:06 435.225 FM
KITSAT 1 03 Sep 05:27:17 05:34:43 37° 15° (NNE) 05:42:07 435.175 FM
JAS-1B 03 Sep 05:30:32 05:37:00 40° 303° (WNW) 05:42:36 435.800 - 435.900 CW/SSB
Oscar 16 03 Sep 05:40:56 05:43:28 14° 313° (NW) 05:46:00 437.025 USB, Beacon 2401.1428
ITAMSAT 1 03 Sep 05:45:09 05:49:05 22° 306° (NW) 05:53:00 435.822 SSB
Uribyol 2 03 Sep 05:54:23 05:57:57 19° 308° (NW) 06:01:31 436.500 FM
Uosat F 03 Sep 05:55:39 06:00:37 60° 102° (ESE) 06:05:34 435.120 FM
Hamsat 03 Sep 06:13:02 06:15:08 13° 85° (E) 06:17:14 145.90 MHz
TMSAT-1 03 Sep 06:13:18 06:17:54 31° 301° (WNW) 06:22:28 436.925 FM
AO-27 03 Sep 06:15:59 06:18:45 15° 312° (NW) 06:21:32 436.795 MHz FM
AO-7 03 Sep 06:17:09 06:25:30 73° 108° (ESE) 06:33:46 29.400 - 29.500 MHz
OPAL 03 Sep 06:46:23 06:48:36 13° 274° (W) 06:50:51 ?
UOSAT-12 03 Sep 06:48:23 06:53:04 81° 317° (NW) 06:57:50 437.025 FM, 437.400 FM
SO-50 03 Sep 06:51:34 06:55:28 26° 342° (NNW) 06:59:28 436.795 FM
STRAND 1 03 Sep 06:53:37 06:58:39 65° 69° (ENE) 07:03:43 ?
Saudisat 1A 03 Sep 06:56:10 07:00:31 55° 232° (SW) 07:04:49 436.775 MHz
JAS-2 03 Sep 07:02:02 07:06:51 35° 96° (E) 07:11:57 435.800 - 435.900 CW/SSB, 435.910 FM
RS-15 03 Sep 07:02:15 07:11:04 29° 105° (ESE) 07:19:47 29.354 - 29.394 USB, Beacon 29.352 USB
Gurwin Techsat 1B 03 Sep 07:05:35 07:07:51 13° 315° (NW) 07:10:07 435.225 FM
JAS-1B 03 Sep 07:22:33 07:25:35 13° 330° (NNW) 07:28:26 435.800 - 435.900 CW/SSB
KITSAT 1 03 Sep 07:23:24 07:31:31 70° 42° (NE) 07:39:34 435.175 FM
Uosat F 03 Sep 07:34:57 07:39:07 27° 302° (WNW) 07:43:17 435.120 FM
SO-67 03 Sep 07:39:38 07:41:20 13° 88° (E) 07:43:01 435.3500 MHz FM
Hamsat 03 Sep 07:47:23 07:51:47 89° 108° (ESE) 07:56:07 145.90 MHz
AO-7 03 Sep 08:10:23 08:17:50 39° 311° (NW) 08:25:16 29.400 - 29.500 MHz
UOSAT-12 03 Sep 08:29:46 08:33:52 29° 339° (NNW) 08:38:01 437.025 FM, 437.400 FM
SO-50 03 Sep 08:33:46 08:37:25 22° 6° (N) 08:41:07 436.795 FM
STRAND 1 03 Sep 08:34:18 08:38:19 23° 269° (W) 08:42:22 ?
JAS-2 03 Sep 08:47:13 08:52:09 44° 295° (WNW) 08:57:22 435.800 - 435.900 CW/SSB, 435.910 FM
RS-15 03 Sep 09:10:52 09:21:52 83° 130° (SE) 09:32:52 29.354 - 29.394 USB, Beacon 29.352 USB
SO-67 03 Sep 09:11:20 09:14:48 63° 287° (WNW) 09:18:13 435.3500 MHz FM
KITSAT 1 03 Sep 09:19:10 09:26:36 42° 245° (WSW) 09:34:01 435.175 FM
Hamsat 03 Sep 09:24:30 09:27:10 16° 305° (NW) 09:29:48 145.90 MHz
HO-68 03 Sep 09:32:30 09:38:17 25° 89° (E) 09:44:01 435.675 MHz FM
UKube-1 03 Sep 09:52:39 09:54:57 14° 87° (E) 09:57:15 145.840 MHz, 145.915 MHz
Oscar 11 03 Sep 09:55:32 09:56:42 11° 84° (E) 09:57:51 145.825 FM, Beacon 2401.500 USB
AO-7 03 Sep 10:03:46 10:08:29 17° 336° (NNW) 10:13:12 29.400 - 29.500 MHz
ISS 03 Sep 10:10:11 10:11:57 14° 142° (SE) 10:13:43 145.800 FM
UOSAT-12 03 Sep 10:11:41 10:15:22 22° 3° (N) 10:19:04 437.025 FM, 437.400 FM
SO-50 03 Sep 10:14:42 10:19:09 38° 30° (NNE) 10:23:39 436.795 FM
FUNcube-1 03 Sep 10:31:32 10:33:09 12° 84° (E) 10:34:47 145.950 - 145.970 MHz USB
JAS-2 03 Sep 10:35:23 10:36:06 10° 318° (NW) 10:36:48 435.800 - 435.900 CW/SSB, 435.910 FM
JAS-1B 03 Sep 10:58:00 10:59:57 11° 25° (NNE) 11:01:50 435.800 - 435.900 CW/SSB
HO-68 03 Sep 11:19:39 11:26:51 85° 291° (WNW) 11:34:02 435.675 MHz FM
RS-15 03 Sep 11:24:34 11:35:13 53° 340° (NNW) 11:46:00 29.354 - 29.394 USB, Beacon 29.352 USB
UKube-1 03 Sep 11:27:25 11:31:48 87° 286° (WNW) 11:36:09 145.840 MHz, 145.915 MHz
Oscar 11 03 Sep 11:29:18 11:33:42 74° 103° (ESE) 11:38:04 145.825 FM, Beacon 2401.500 USB
ISS 03 Sep 11:44:54 11:48:04 41° 161° (SSE) 11:51:14 145.800 FM
UOSAT-12 03 Sep 11:52:24 11:56:46 35° 27° (NNE) 12:01:06 437.025 FM, 437.400 FM
AO-7 03 Sep 11:55:07 11:58:02 12° 4° (N) 12:00:57 29.400 - 29.500 MHz
SO-50 03 Sep 11:55:17 11:59:59 61° 231° (SW) 12:04:45 436.795 FM
FUNcube-1 03 Sep 12:05:47 12:10:21 74° 103° (ESE) 12:14:57 145.950 - 145.970 MHz USB
Oscar 16 03 Sep 12:07:34 12:10:43 17° 50° (NE) 12:13:52 437.025 USB, Beacon 2401.1428
MaSat-1 03 Sep 12:15:57 12:18:53 16° 102° (ESE) 12:21:51 437.345 MHz
ITAMSAT 1 03 Sep 12:16:15 12:17:04 10° 42° (NE) 12:17:53 435.822 SSB
Uribyol 2 03 Sep 12:23:48 12:25:47 12° 45° (NE) 12:27:47 436.500 FM
JAS-1B 03 Sep 12:40:52 12:48:07 29° 49° (NE) 12:54:33 435.800 - 435.900 CW/SSB
AO-27 03 Sep 12:43:41 12:46:44 16° 49° (NE) 12:49:47 436.795 MHz FM
UKube-1 03 Sep 13:04:49 13:07:24 16° 307° (NW) 13:09:59 145.840 MHz, 145.915 MHz
AO-Echo 03 Sep 13:05:51 13:09:25 21° 56° (NE) 13:12:56 ?
Oscar 11 03 Sep 13:06:22 13:09:26 19° 303° (WNW) 13:12:29 145.825 FM, Beacon 2401.500 USB
HO-68 03 Sep 13:08:03 13:13:45 27° 313° (NW) 13:19:27 435.675 MHz FM
Oscar 19 03 Sep 13:08:57 13:13:44 39° 63° (ENE) 13:18:33 437.125 CW, 437.150 USB
ISS 03 Sep 13:21:17 13:24:36 64° 181° (S) 13:27:54 145.800 FM
UOSAT-12 03 Sep 13:32:34 13:37:19 72° 229° (SW) 13:42:00 437.025 FM, 437.400 FM
Gurwin Techsat 1B 03 Sep 13:33:49 13:37:30 19° 52° (NE) 13:41:11 435.225 FM
SO-50 03 Sep 13:37:50 13:39:41 12° 251° (WSW) 13:41:33 436.795 FM
RS-15 03 Sep 13:39:29 13:50:03 49° 13° (NNE) 14:00:51 29.354 - 29.394 USB, Beacon 29.352 USB
AO-7 03 Sep 13:42:14 13:47:47 20° 31° (NNE) 13:53:19 29.400 - 29.500 MHz
FUNcube-1 03 Sep 13:43:01 13:46:18 20° 302° (WNW) 13:49:37 145.950 - 145.970 MHz USB
Oscar 16 03 Sep 13:44:06 13:49:15 72° 70° (ENE) 13:54:27 437.025 USB, Beacon 2401.1428
MaSat-1 03 Sep 13:50:01 13:55:05 76° 122° (ESE) 14:00:14 437.345 MHz
ITAMSAT 1 03 Sep 13:50:30 13:55:20 42° 63° (ENE) 14:00:11 435.822 SSB
Uribyol 2 03 Sep 13:59:13 14:04:11 50° 66° (ENE) 14:09:11 436.500 FM
AO-27 03 Sep 14:20:16 14:25:25 69° 70° (ENE) 14:30:35 436.795 MHz FM
TMSAT-1 03 Sep 14:21:27 14:26:01 31° 59° (ENE) 14:30:37 436.925 FM
